New Bedford, MA

6:41 PM EST on November 20, 2017 (GMT -0500)
New Bedford Regional

Weather History for KEWB - April, 2013

Change the Weather History Date:

Thursday, April 25, 2013

  Actual Average Record
Temperature  
Mean Temperature 53 °F -  
Max Temperature 64 °F 56 °F 72 °F (1961)
Min Temperature 39 °F 42 °F 27 °F (2003)
Degree Days  
Heating Degree Days 12    
Growing Degree Days 3 (Base 50)    
Moisture  
Dew Point 42 °F    
Average Humidity 72    
Maximum Humidity 96    
Minimum Humidity 28    
Precipitation  
Precipitation 0.03 in - - ()
Sea Level Pressure  
Sea Level Pressure 30.05 in    
Wind  
Wind Speed 10 mph (WSW)    
Max Wind Speed 16 mph    
Max Gust Speed 34 mph    
Visibility 8 miles    
Events Rain    
Averages and records for this station are not official NWS values.
T = Trace of Precipitation, MM = Missing Value Source: NWS Daily Summary

Daily Weather History Graph

Daily Weather History Graph

Search for Another Location

Airport or City:

Trip Planner

Search our weather history database for the weather conditions in past years. The results will help you decide how hot, cold, wet, or windy it might be!

Date:

Astronomy

Apr. 25, 2013 Rise Set
Actual Time 5:48 AM EDT 7:35 PM EDT
Civil Twilight 5:18 AM EDT 8:05 PM EDT
Nautical Twilight 4:42 AM EDT 8:41 PM EDT
Astronomical Twilight 4:04 AM EDT 9:20 PM EDT
Moon 7:45 PM EDT (4/25) 5:29 AM EDT (4/25)
Length of Visible Light 14h 46m
Length of Day
13h 47m
Full, 100% of the Moon is Illuminated
Apr 25
Full
Apr 25
Full
May 2
Last Quarter
May 9
New
May 18
First Quarter

Hourly Weather History & Observations

Time (EDT) Temp. Windchill Dew Point Humidity Pressure Visibility Wind Dir Wind Speed Gust Speed Precip Events Conditions
12:04 AM 50.0 °F - 48.2 °F 94% 29.94 in 2.5 mi SSW 16.1 mph - N/A   Overcast
12:22 AM 50.0 °F - 48.2 °F 94% 29.94 in 3.0 mi SSW 13.8 mph 20.7 mph N/A   Overcast
12:38 AM 51.8 °F - 48.2 °F 88% 29.94 in 2.0 mi SSW 12.7 mph 23.0 mph N/A   Overcast
12:53 AM 51.1 °F - 50.0 °F 96% 29.94 in 3.0 mi SSW 13.8 mph 21.9 mph N/A   Overcast
1:53 AM 51.1 °F - 50.0 °F 96% 29.91 in 6.0 mi SSW 11.5 mph - N/A   Overcast
2:33 AM 51.8 °F - 50.0 °F 94% 29.90 in 7.0 mi SSW 13.8 mph 24.2 mph N/A   Overcast
2:53 AM 53.1 °F - 51.1 °F 93% 29.90 in 8.0 mi SSW 16.1 mph 21.9 mph N/A   Overcast
3:53 AM 53.1 °F - 50.0 °F 89% 29.90 in 8.0 mi SW 13.8 mph 34.5 mph N/A   Overcast
4:53 AM 52.0 °F - 50.0 °F 93% 29.91 in 7.0 mi SW 6.9 mph 18.4 mph N/A   Overcast
5:53 AM 51.1 °F - 48.9 °F 92% 29.94 in 6.0 mi SW 8.1 mph - N/A   Overcast
6:53 AM 51.1 °F - 48.9 °F 92% 29.99 in 5.0 mi WSW 3.5 mph - 0.00 in Rain Light Rain
7:02 AM 51.8 °F - 48.2 °F 88% 29.99 in 4.0 mi West 4.6 mph - 0.01 in Rain Light Rain
7:46 AM 50.0 °F - 44.6 °F 82% 30.01 in 10.0 mi NNW 8.1 mph - 0.02 in Rain Light Rain
7:53 AM 50.0 °F - 45.0 °F 83% 30.02 in 10.0 mi Variable 3.5 mph - 0.02 in Rain Light Rain
8:10 AM 48.2 °F - 44.6 °F 87% 30.04 in 10.0 mi NW 5.8 mph - 0.00 in   Overcast
8:53 AM 48.9 °F - 41.0 °F 74% 30.06 in 10.0 mi Variable 3.5 mph - 0.00 in   Overcast
9:53 AM 48.0 °F - 39.9 °F 74% 30.10 in 10.0 mi NW 5.8 mph - 0.01 in Rain Light Rain
10:53 AM 51.1 °F - 37.9 °F 61% 30.10 in 10.0 mi WNW 6.9 mph - 0.00 in   Mostly Cloudy
11:53 AM 55.9 °F - 36.0 °F 47% 30.10 in 10.0 mi NW 6.9 mph - N/A   Clear
12:53 PM 60.1 °F - 36.0 °F 41% 30.11 in 10.0 mi West 10.4 mph - N/A   Clear
1:53 PM 62.1 °F - 34.0 °F 35% 30.11 in 10.0 mi West 10.4 mph 18.4 mph N/A   Clear
2:53 PM 64.0 °F - 32.0 °F 30% 30.10 in 10.0 mi NW 8.1 mph 16.1 mph N/A   Clear
3:53 PM 64.0 °F - 30.0 °F 28% 30.10 in 10.0 mi Variable 3.5 mph - N/A   Clear
4:53 PM 62.1 °F - 39.0 °F 43% 30.12 in 10.0 mi ESE 8.1 mph - N/A   Clear
5:53 PM 59.0 °F - 39.9 °F 49% 30.12 in 10.0 mi ESE 6.9 mph - N/A   Clear
6:53 PM 57.9 °F - 35.1 °F 42% 30.14 in 10.0 mi SSW 10.4 mph - N/A   Clear
7:53 PM 54.0 °F - 33.1 °F 45% 30.17 in 10.0 mi Calm Calm - N/A   Clear
8:53 PM 48.0 °F - 37.0 °F 66% 30.21 in 10.0 mi Calm Calm - N/A   Clear
9:53 PM 43.0 °F - 37.0 °F 80% 30.23 in 10.0 mi Calm Calm - N/A   Clear
10:53 PM 42.1 °F - 37.0 °F 82% 30.24 in 10.0 mi Calm Calm - N/A   Clear
11:53 PM 39.0 °F 35.7 °F 36.0 °F 89% 30.25 in 10.0 mi SSW 4.6 mph - N/A   Clear